Western Head, Nova Scotia

12:44 AM ADT on May 26, 2017 (GMT -0300)
Western Head

Weather History for CWWE - October, 2013

Change the Weather History Date:

Thursday, October 31, 2013

  Actual Average Record
Temperature  
Mean Temperature 42 °F -  
Max Temperature 54 °F - - ()
Min Temperature 31 °F - - ()
Degree Days  
Heating Degree Days 24    
Moisture  
Dew Point 37 °F    
Average Humidity 76    
Maximum Humidity 93    
Minimum Humidity 39    
Precipitation  
Precipitation 0.04 in - - ()
Sea Level Pressure  
Sea Level Pressure 30.21 in    
Wind  
Wind Speed 7 mph ()    
Max Wind Speed 24 mph    
Max Gust Speed -    
T = Trace of Precipitation, MM = Missing Value Source: Averaged Metar Reports

Daily Weather History Graph

Daily Weather History Graph

Search for Another Location

Airport or City:

Trip Planner

Search our weather history database for the weather conditions in past years. The results will help you decide how hot, cold, wet, or windy it might be!

Date:

Astronomy

Oct. 31, 2013 Rise Set
Actual Time 7:54 AM ADT 6:09 PM ADT
Civil Twilight 7:24 AM ADT 6:39 PM ADT
Nautical Twilight 6:49 AM ADT 7:13 PM ADT
Astronomical Twilight 6:16 AM ADT 7:47 PM ADT
Moon 4:33 AM ADT (10/31) 4:30 PM ADT (10/31)
Length of Visible Light 11h 15m
Length of Day
10h 15m
Waning Crescent, 10% of the Moon is Illuminated
Oct 31
Waning Crescent
Nov 3
New
Nov 10
First Quarter
Nov 17
Full
Nov 25
Last Quarter

Hourly Weather History & Observations

Time (ADT) Temp. Windchill Dew Point Humidity Pressure Visibility Wind Dir Wind Speed Gust Speed Precip Events Conditions
12:00 AM 40 °F - 36 °F 81% 30.20 in - WNW 4.6 mph - -  
12:00 AM 39.9 °F 36.7 °F 36.1 °F 86% 30.20 in - WNW 4.6 mph - N/A   Unknown
1:00 AM 39.4 °F 36.1 °F 36.7 °F 90% 30.19 in - WNW 4.6 mph - N/A   Unknown
2:00 AM 39.2 °F 35.9 °F 36.0 °F 88% 30.20 in - West 4.6 mph - N/A   Unknown
3:00 AM 37 °F - 35 °F 92% 30.22 in - West 6.9 mph - -  
3:00 AM 37.2 °F 31.9 °F 35.4 °F 93% 30.22 in - West 6.9 mph - N/A   Unknown
4:00 AM 34.9 °F 29.0 °F 33.1 °F 93% 30.23 in - WNW 6.9 mph - N/A   Unknown
5:00 AM 31.5 °F 24.9 °F 29.5 °F 92% 30.23 in - WNW 6.9 mph - N/A   Unknown
6:00 AM 34 °F - 29 °F 76% 30.24 in - WNW 8.1 mph - -  
6:00 AM 33.6 °F 26.8 °F 29.3 °F 84% 30.24 in - WNW 8.1 mph - N/A   Unknown
7:00 AM 31.6 °F 26.0 °F 29.1 °F 90% 30.25 in - West 5.8 mph - N/A   Unknown
8:00 AM 34.0 °F 27.2 °F 29.7 °F 84% 30.25 in - NW 8.1 mph - N/A   Unknown
9:00 AM 39 °F - 31 °F 65% 30.27 in - WNW 6.9 mph - -  
9:00 AM 38.8 °F 33.8 °F 31.3 °F 74% 30.27 in - WNW 6.9 mph - N/A   Unknown
10:00 AM 44.8 °F 43.3 °F 30.2 °F 57% 30.27 in - WNW 3.5 mph - N/A   Unknown
11:00 AM 47.7 °F - 28.6 °F 48% 30.28 in - WSW 6.9 mph - N/A   Unknown
12:00 PM 49 °F - 32 °F 39% 30.27 in - SW 8.1 mph - -  
12:00 PM 48.7 °F - 31.8 °F 52% 30.27 in - SW 8.1 mph - N/A   Unknown
1:00 PM 50.5 °F - 34.5 °F 54% 30.26 in - SW 10.4 mph - N/A   Unknown
2:00 PM 50.4 °F - 36.3 °F 59% 30.23 in - South 10.4 mph - N/A   Unknown
3:00 PM 49 °F - 38 °F 55% 30.22 in - SSW 16.1 mph - -  
3:00 PM 49.3 °F - 37.9 °F 65% 30.22 in - SSW 16.1 mph - N/A   Unknown
4:00 PM 47.8 °F - 38.3 °F 70% 30.20 in - SSW 16.1 mph - N/A   Unknown
5:00 PM 48.2 °F - 39.4 °F 72% 30.21 in - SSW 13.8 mph - N/A   Unknown
6:00 PM 48 °F - 41 °F 68% 30.19 in - SSW 12.7 mph - -  
6:00 PM 48.0 °F - 40.8 °F 76% 30.19 in - SSW 12.7 mph - N/A   Unknown
7:00 PM 48.2 °F - 42.4 °F 80% 30.17 in - SSW 8.1 mph - N/A   Unknown
8:00 PM 50.7 °F - 46.4 °F 85% 30.15 in - South 15.0 mph - N/A   Unknown
9:00 PM 52 °F - 49 °F 84% 30.13 in - South 15.0 mph - -  
9:00 PM 51.8 °F - 48.6 °F 89% 30.13 in - South 15.0 mph - N/A   Unknown
10:00 PM 52.3 °F - 49.6 °F 91% 30.08 in - South 10.4 mph - N/A   Unknown
11:00 PM 54.0 °F - 51.4 °F 91% 30.03 in - South 24.2 mph - N/A   Unknown